When you browse on this site, cookies collect data to enhance your experience and personalize the content and advertising you see.
Visit our Privacy Policy to learn more. By continuing to use the site, you agree to this use of cookies and data.
EN

Hourly Weather Kukarki

Today, 22 September, Tuesday

Time Temperature Precipitation Wind Pressure Humidity
00:00 +8°C° 0 mm 4 mps 747 mmHg 78%
01:00 +8°C° 0 mm 4 mps 747 mmHg 81%
02:00 +9°C° 0 mm 3 mps 748 mmHg 83%
03:00 +8°C° 0 mm 3 mps 748 mmHg 85%
04:00 +8°C° 0 mm 3 mps 748 mmHg 88%
05:00 +8°C° 0 mm 3 mps 748 mmHg 91%
06:00 +8°C° 0 mm 3 mps 748 mmHg 93%
07:00 +8°C° 0 mm 4 mps 748 mmHg 87%
08:00 +10°C° 0 mm 5 mps 748 mmHg 81%
09:00 +13°C° 0 mm 5 mps 748 mmHg 75%
10:00 +14°C° 0 mm 6 mps 748 mmHg 70%
11:00 +15°C° 0 mm 6 mps 748 mmHg 66%
12:00 +17°C° 0 mm 6 mps 748 mmHg 61%
13:00 +17°C° 0 mm 7 mps 748 mmHg 60%
14:00 +18°C° 0 mm 7 mps 748 mmHg 58%
15:00 +18°C° 0 mm 7 mps 748 mmHg 57%
16:00 +17°C° 0 mm 6 mps 748 mmHg 61%
17:00 +16°C° 0 mm 5 mps 747 mmHg 65%
18:00 +17°C° 0 mm 4 mps 747 mmHg 69%
19:00 +15°C° 0 mm 5 mps 747 mmHg 72%
20:00 +14°C° 0 mm 5 mps 747 mmHg 74%
21:00 +14°C° 0 mm 5 mps 748 mmHg 76%
22:00 +13°C° 0 mm 5 mps 747 mmHg 77%
23:00 +13°C° 0 mm 4 mps 747 mmHg 79%

Tomorrow, 23 September, Wednesday

Time Temperature Precipitation Wind Pressure Humidity
00:00 +12°C° 0 mm 4 mps 747 mmHg 81%
01:00 +12°C° 0 mm 4 mps 747 mmHg 83%
02:00 +11°C° 0 mm 4 mps 747 mmHg 86%
03:00 +11°C° 0 mm 4 mps 748 mmHg 89%
04:00 +10°C° 0 mm 3 mps 748 mmHg 91%
05:00 +10°C° 0 mm 3 mps 748 mmHg 92%
06:00 +9°C° 0 mm 3 mps 748 mmHg 94%
07:00 +11°C° 0 mm 3 mps 748 mmHg 88%
08:00 +12°C° 0 mm 4 mps 749 mmHg 82%
09:00 +14°C° 0 mm 4 mps 749 mmHg 76%
10:00 +17°C° 0 mm 4 mps 749 mmHg 67%
11:00 +18°C° 0 mm 4 mps 749 mmHg 59%
12:00 +20°C° 0 mm 4 mps 749 mmHg 50%
13:00 +21°C° 0 mm 3 mps 749 mmHg 48%
14:00 +21°C° 0 mm 3 mps 749 mmHg 46%
15:00 +21°C° 0 mm 3 mps 749 mmHg 44%
16:00 +20°C° 0 mm 2 mps 749 mmHg 50%
17:00 +18°C° 0 mm 2 mps 749 mmHg 56%
18:00 +18°C° 0 mm 1 mps 749 mmHg 61%
19:00 +16°C° 0 mm 1 mps 749 mmHg 64%
20:00 +15°C° 0 mm 1 mps 749 mmHg 67%
21:00 +14°C° 0 mm 0 mps 749 mmHg 69%
22:00 +14°C° 0 mm 1 mps 749 mmHg 71%
23:00 +14°C° 0 mm 1 mps 749 mmHg 72%

Day after tomorrow, 24 September, Thursday

Time Temperature Precipitation Wind Pressure Humidity
00:00 +14°C° 0 mm 1 mps 749 mmHg 73%
01:00 +13°C° 0 mm 1 mps 750 mmHg 75%
02:00 +13°C° 0 mm 1 mps 750 mmHg 76%
03:00 +12°C° 0 mm 1 mps 750 mmHg 78%
04:00 +12°C° 0 mm 1 mps 750 mmHg 79%
05:00 +12°C° 0 mm 1 mps 750 mmHg 80%
06:00 +11°C° 0 mm 1 mps 750 mmHg 81%
07:00 +13°C° 0 mm 2 mps 751 mmHg 75%
08:00 +15°C° 0 mm 2 mps 751 mmHg 69%
09:00 +16°C° 0 mm 2 mps 751 mmHg 62%
10:00 +18°C° 0 mm 2 mps 751 mmHg 57%
11:00 +19°C° 0 mm 2 mps 751 mmHg 53%
12:00 +21°C° 0 mm 2 mps 751 mmHg 48%
13:00 +21°C° 0 mm 2 mps 751 mmHg 46%
14:00 +21°C° 0 mm 2 mps 751 mmHg 45%
15:00 +22°C° 0 mm 3 mps 751 mmHg 43%
16:00 +20°C° 0 mm 3 mps 751 mmHg 48%
17:00 +19°C° 0 mm 3 mps 751 mmHg 53%
18:00 +17°C° 0 mm 3 mps 750 mmHg 58%
19:00 +17°C° 0 mm 3 mps 751 mmHg 59%
20:00 +16°C° 0 mm 3 mps 751 mmHg 60%
21:00 +16°C° 0 mm 3 mps 751 mmHg 61%
22:00 +14°C° 0 mm 3 mps 751 mmHg 62%
23:00 +14°C° 0 mm 3 mps 751 mmHg 63%

25 September, Friday

Time Temperature Precipitation Wind Pressure Humidity
00:00 +14°C° 0 mm 3 mps 751 mmHg 63%
01:00 +14°C° 0 mm 3 mps 751 mmHg 64%
02:00 +13°C° 0 mm 3 mps 751 mmHg 65%
03:00 +13°C° 0 mm 3 mps 751 mmHg 67%
04:00 +13°C° 0 mm 3 mps 752 mmHg 69%
05:00 +12°C° 0 mm 3 mps 752 mmHg 71%
06:00 +12°C° 0 mm 3 mps 752 mmHg 73%
07:00 +13°C° 0 mm 3 mps 752 mmHg 69%
08:00 +14°C° 0 mm 4 mps 752 mmHg 65%
09:00 +17°C° 0 mm 4 mps 752 mmHg 60%
10:00 +18°C° 0 mm 4 mps 752 mmHg 56%
11:00 +19°C° 0 mm 5 mps 752 mmHg 52%
12:00 +21°C° 0 mm 5 mps 752 mmHg 47%
13:00 +21°C° 0 mm 5 mps 752 mmHg 45%
14:00 +21°C° 0 mm 5 mps 752 mmHg 44%
15:00 +21°C° 0 mm 5 mps 752 mmHg 42%
16:00 +19°C° 0 mm 4 mps 752 mmHg 44%
17:00 +18°C° 0 mm 4 mps 752 mmHg 46%
18:00 +16°C° 0 mm 3 mps 752 mmHg 49%
19:00 +16°C° 0 mm 3 mps 752 mmHg 49%
20:00 +14°C° 0 mm 4 mps 752 mmHg 50%
21:00 +13°C° 0 mm 4 mps 752 mmHg 50%
22:00 +12°C° 0 mm 4 mps 752 mmHg 51%
23:00 +12°C° 0 mm 4 mps 752 mmHg 51%

26 September, Saturday

Time Temperature Precipitation Wind Pressure Humidity
00:00 +11°C° 0 mm 4 mps 752 mmHg 52%
01:00 +11°C° 0 mm 4 mps 752 mmHg 54%
02:00 +11°C° 0 mm 3 mps 752 mmHg 55%
03:00 +10°C° 0 mm 3 mps 752 mmHg 57%
04:00 +10°C° 0 mm 3 mps 752 mmHg 59%
05:00 +10°C° 0 mm 4 mps 752 mmHg 60%
06:00 +8°C° 0 mm 4 mps 752 mmHg 62%
07:00 +11°C° 0 mm 4 mps 752 mmHg 58%
08:00 +13°C° 0 mm 4 mps 752 mmHg 54%
09:00 +14°C° 0 mm 5 mps 753 mmHg 50%
10:00 +16°C° 0 mm 5 mps 753 mmHg 47%
11:00 +19°C° 0 mm 5 mps 753 mmHg 45%
12:00 +20°C° 0 mm 5 mps 753 mmHg 42%
13:00 +21°C° 0 mm 5 mps 753 mmHg 41%
14:00 +22°C° 0 mm 5 mps 753 mmHg 40%
15:00 +23°C° 0 mm 5 mps 753 mmHg 39%
16:00 +21°C° 0 mm 5 mps 753 mmHg 42%
17:00 +20°C° 0 mm 5 mps 753 mmHg 45%
18:00 +18°C° 0 mm 4 mps 753 mmHg 49%
19:00 +17°C° 0 mm 4 mps 753 mmHg 47%
20:00 +16°C° 0 mm 5 mps 753 mmHg 46%
21:00 +15°C° 0 mm 5 mps 753 mmHg 45%
22:00 +14°C° 0 mm 5 mps 754 mmHg 44%
23:00 +14°C° 0 mm 5 mps 754 mmHg 44%

27 September, Sunday

Time Temperature Precipitation Wind Pressure Humidity
00:00 +13°C° 0 mm 4 mps 754 mmHg 43%
01:00 +13°C° 0 mm 4 mps 754 mmHg 45%
02:00 +12°C° 0 mm 4 mps 755 mmHg 47%
03:00 +12°C° 0 mm 4 mps 755 mmHg 49%
04:00 +11°C° 0 mm 4 mps 755 mmHg 50%
05:00 +11°C° 0 mm 4 mps 755 mmHg 52%
06:00 +10°C° 0 mm 4 mps 755 mmHg 54%
07:00 +10°C° 0 mm 5 mps 755 mmHg 51%
08:00 +13°C° 0 mm 5 mps 755 mmHg 48%
09:00 +14°C° 0 mm 6 mps 756 mmHg 45%
10:00 +16°C° 0 mm 6 mps 756 mmHg 40%
11:00 +17°C° 0 mm 6 mps 756 mmHg 36%
12:00 +20°C° 0 mm 7 mps 756 mmHg 32%
13:00 +20°C° 0 mm 7 mps 756 mmHg 32%
14:00 +20°C° 0 mm 7 mps 756 mmHg 31%
15:00 +20°C° 0 mm 7 mps 755 mmHg 30%
16:00 +19°C° 0 mm 6 mps 755 mmHg 33%
17:00 +16°C° 0 mm 5 mps 755 mmHg 35%
18:00 +15°C° 0 mm 5 mps 755 mmHg 38%
19:00 +14°C° 0 mm 5 mps 756 mmHg 39%
20:00 +13°C° 0 mm 5 mps 756 mmHg 39%
21:00 +13°C° 0 mm 5 mps 756 mmHg 40%
22:00 +12°C° 0 mm 5 mps 756 mmHg 40%
23:00 +12°C° 0 mm 5 mps 757 mmHg 40%
Show more